User: anonymous   Login
Location: Newark
(41.0400°S, 62.7845°W)
Time: 08:31:17
(UTC+00:00)
Language:

FALCONSAT 3 - Orbit

View from above orbital plane
View from above orbital plane
View from above satellite
View from above satellite

Ground track
Ground track

The orbit data is extracted from the following two-line orbital elements,

1 30776U 07006E   22028.49370616  .00013005  00000-0  27135-3 0  9996
2 30776  35.4338  90.4926 0003081 182.1489 177.9227 15.44721687827878
Epoch (UTC): 28 January 2022 11:50:56
Eccentricity: 0.0003081
inclination: 35.4338°
perigee height: 430 km
apogee height: 434 km
right ascension of ascending node: 90.4926°
argument of perigee: 182.1489°
revolutions per day: 15.44721687
mean anomaly at epoch: 177.9227°
orbit number at epoch: 82787

The dashed part of the orbit path shows where the satellite is in the earth's shadow,  

DLR